Regional Weather Roundup
Issued by NWS

Home | Current Version | Previous Version | Text Only | Print | Product List | Glossary On
Versions: 1 2 3 4 5 6 7 8 9 10 11 12 13 14 15 16 17 18 19 20 21 22 23 24 25 26 27 28 29 30 31 32 33 34 35 36 37 38 39 40 41 42 43 44 45 46 47 48 49 50
000
ASUS43 KOAX 230703
RWRNE

WEATHER ROUNDUP FOR NEBRASKA
NATIONAL WEATHER SERVICE OMAHA NE
200 AM CDT WED MAY 23 2018

NOTES: SATELLITE DATA IS BEING USED TO AUGMENT CLOUD COVER ABOVE
       12000 FEET.
       "FAIR" INDICATES FEW OR NO CLOUDS BELOW 12,000 FEET WITH NO
       SIGNIFICANT WEATHER AND/OR OBSTRUCTIONS TO VISIBILITY.


NEZ001>004-019>022-054>056-230800-
NEBRASKA PANHANDLE

CITY           SKY/WX    TMP DP  RH WIND       PRES   REMARKS
SCOTTSBLUFF    MOCLDY    59  57  93 NW8       29.92F
ALLIANCE       MOCLDY    57  55  93 CALM      29.92F
CHADRON        LGT RAIN  57  56  96 NW5       29.94R
GORDON         PTSUNNY   65  57  76 SW12G21   29.90R
KIMBALL        MOCLDY    55  49  81 NW6       29.96F
SIDNEY         PTCLDY    57  54  89 NW8       29.94S
$$

NEZ057>060-069>072-079>082-230800-
SOUTHWEST NEBRASKA

CITY           SKY/WX    TMP DP  RH WIND       PRES   REMARKS
NORTH PLATTE   MOCLDY    70  59  68 S9G22     29.92S
IMPERIAL       MOCLDY    65  55  70 SE12      29.90F
LEXINGTON      MOCLDY    70  64  79 S14       29.93F
MCCOOK         PTCLDY    67  58  72 SE12      29.92S
OGALLALA       MOCLDY    67  54  63 S12G18    29.90S
$$

NEZ005>010-023>029-035>040-094-230800-
NORTH CENTRAL NEBRASKA

CITY           SKY/WX    TMP DP  RH WIND       PRES   REMARKS
VALENTINE      PTCLDY    66  60  81 NE3       29.90F
AINSWORTH      MOCLDY    67  57  70 S14       29.91F
BROKEN BOW     MOCLDY    72  63  73 S14G26    29.93F
O`NEILL        MOCLDY    71  64  80 SE5       29.94S
ORD            CLOUDY    71  63  75 SE6       29.92F
THEDFORD       PTCLDY    65  58  78 SE8       29.92F
$$

NEZ041-046>049-061>064-073>077-083>087-230800-
SOUTH CENTRAL NEBRASKA

CITY           SKY/WX    TMP DP  RH WIND       PRES   REMARKS
GRAND ISLAND   CLOUDY    69  62  78 S12       29.97S
AURORA         CLEAR     70  64  81 S10       29.97S
HASTINGS       CLEAR     71  62  73 S8        29.97F
HEBRON         CLEAR     72  64  76 S8        29.98S
HOLDREGE       PTCLDY    70  63  77 S15       29.95F
KEARNEY        PTCLDY    71  62  73 S12       29.96R
YORK           CLEAR     68  68 100 S9        29.98S
$$

NEZ011>018-030>034-042>045-230800-
NORTHEAST NEBRASKA

CITY           SKY/WX    TMP DP  RH WIND       PRES   REMARKS
NORFOLK        CLOUDY    70  63  78 S12       29.95F
ALBION         CLOUDY    69  64  82 S7        29.96S
BLAIR          CLEAR     72  64  75 S9        29.99S
COLUMBUS       PTCLDY    73  64  73 S16       29.96F
FREMONT        PTCLDY    73  64  71 SE9       29.98F
TEKAMAH        PTCLDY    65  63  93 S6        29.97S
WAYNE          PTCLDY    67  66  96 SE10      29.96S
$$

NEZ050>053-065>068-078-088>093-230800-
SOUTHEAST NEBRASKA

CITY           SKY/WX    TMP DP  RH WIND       PRES   REMARKS
LINCOLN        PTCLDY    70  63  78 S7        29.98F
OMAHA EPPLEY   MOCLDY    69  62  78 SE7       29.99S
BEATRICE       CLEAR     73  65  78 SE7       29.99F
FALLS CITY     CLEAR     70  63  78 S7        30.00S
NEBRASKA CITY  CLEAR     69  66  90 S8        30.01S
PLATTSMOUTH    CLEAR     71  64  77 SE9       30.00S
$$

NEZ044-045-051>053-067-230800-
OMAHA AREA

CITY           SKY/WX    TMP DP  RH WIND       PRES   REMARKS
OMAHA EPPLEY   MOCLDY    69  62  78 SE7       29.99S
BLAIR          CLEAR     72  64  75 S9        29.99S
FREMONT        PTCLDY    73  64  71 SE9       29.98F
MILLARD        CLEAR     71  64  81 E3        29.99S
OFFUTT AFB     CLEAR     66  63  87 SE6       29.98S
PLATTSMOUTH    CLEAR     71  64  77 SE9       30.00S
WAHOO          FAIR      69  62  79 S9        29.98S
$$



USA.gov is the U.S. government's official web portal to all federal, state and local government web resources and services.